This is the latest recevied weather packets stored in our database for station/object EA3CO-11. If no packets are shown the sender has not sent any weather packets the latest 10 day(s).
| Time | Temp. | Humidity | Pressure | Rain* | Wind** | Luminosity | Snow |
|---|---|---|---|---|---|---|---|
| 1778033849 | 12.78° C | 91% | 1013.4 hPa | - | - | - | - |
| 1778032949 | 12.78° C | 88% | 1013.4 hPa | - | - | - | - |
| 1778032049 | 12.78° C | 79% | 1013.3 hPa | - | - | - | - |
| 1778031149 | 12.78° C | 75% | 1013.3 hPa | - | - | - | - |
| 1778030248 | 12.22° C | 78% | 1013.3 hPa | - | - | - | - |
| 1778029348 | 13.33° C | 73% | 1013.3 hPa | - | - | - | - |
| 1778028448 | 13.33° C | 72% | 1013.3 hPa | - | - | - | - |
| 1778027548 | 13.33° C | 73% | 1013.4 hPa | - | - | - | - |
| 1778026648 | 13.33° C | 72% | 1013.4 hPa | - | - | - | - |
| 1778025748 | 13.89° C | 72% | 1013.6 hPa | - | - | - | - |
| 1778024848 | 13.33° C | 72% | 1013.6 hPa | - | - | - | - |
| 1778023948 | 13.33° C | 73% | 1013.6 hPa | - | - | - | - |
| 1778023048 | 13.89° C | 72% | 1013.5 hPa | - | - | - | - |
| 1778022147 | 13.89° C | 73% | 1013.6 hPa | - | - | - | - |
| 1778021247 | 14.44° C | 73% | 1013.6 hPa | - | - | - | - |
| 1778020347 | 14.44° C | 73% | 1013.8 hPa | - | - | - | - |
| 1778019447 | 14.44° C | 74% | 1014 hPa | - | - | - | - |
| 1778018547 | 14.44° C | 74% | 1014.1 hPa | - | - | - | - |
| 1778017647 | 13.89° C | 73% | 1014.2 hPa | - | - | - | - |
| 1778016747 | 14.44° C | 70% | 1014.2 hPa | - | - | - | - |
| 1778015846 | 14.44° C | 67% | 1013.9 hPa | - | - | - | - |
| 1778014946 | 15° C | 64% | 1013.8 hPa | - | - | - | - |
| 1778014046 | 14.44° C | 64% | 1013.7 hPa | - | - | - | - |
| 1778013146 | 14.44° C | 62% | 1013.5 hPa | - | - | - | - |
| 1778012246 | 14.44° C | 63% | 1013.1 hPa | - | - | - | - |
* Rain since midnight (hover to see other rain measurements)
** Current wind speed in m/s (hover to see current wind gust speed)